This demonstration page uses our WeatherBlox Daily Observations layout. Learn more.

Left ArrowRight Arrow

Hourly Observations for June 9, 2017

Temp ( °F °C ) Dew Point ( °F °C ) Humidity (%) Winds ( mph kmh ) Pressure ( in mb ) Visibility ( mi km ) Precip ( " mm )
12:52 am 00:52 Clear 60 15.6 53 11.7 78 78 Calm 29.93 1013 10 16 0.00 0.00
1:52 am 01:52 Clear 59 15 53 11.7 81 81 Calm 29.91 1013 10 16 0.00 0.00
2:52 am 02:52 Clear 58 14.4 53 11.7 84 84 Calm 29.91 1013 10 16 0.00 0.00
3:52 am 03:52 Clear 57 13.9 52 11.1 83 83 SSE 6 9 29.90 1013 10 16 0.00 0.00
4:52 am 04:52 Clear 58 14.4 53 11.7 84 84 SSE 8 13 29.90 1013 10 16 0.00 0.00
5:52 am 05:52 Clear 57 13.9 53 11.7 87 87 SSE 9 15 29.92 1013 10 16 0.00 0.00
6:52 am 06:52 Sunny 60 15.6 55 12.8 84 84 S 7 11 29.93 1013 10 16 0.00 0.00
7:52 am 07:52 Sunny 65 18.3 57 13.9 76 76 S 10 17 29.94 1014 10 16 0.00 0.00
8:52 am 08:52 Sunny 69 20.6 55 12.8 61 61 SSW 13 20 29.96 1014 10 16 0.00 0.00
9:52 am 09:52 Sunny 73 22.8 56 13.3 55 55 SSW 9 15 29.96 1015 10 16 0.00 0.00
10:52 am 10:52 Sunny 75 23.9 57 13.9 54 54 SSW 9 15 29.95 1014 10 16 0.00 0.00
11:52 am 11:52 Mostly Sunny 77 25 57 13.9 50 50 S 7 11 29.95 1014 10 16 0.00 0.00
12:52 pm 12:52 Partly Cloudy 78 25.6 55 12.8 45 45 VRB 7 11 29.93 1014 10 16 0.00 0.00
1:52 pm 13:52 Mostly Sunny 80 26.7 57 13.9 45 45 SSW 9 15 29.92 1013 10 16 0.00 0.00
2:52 pm 14:52 Partly Cloudy 79 26.1 56 13.3 45 45 S 5 7 29.90 1013 10 16 0.00 0.00
3:52 pm 15:52 Mostly Cloudy 79 26.1 57 13.9 47 47 S 10 17 29.89 1012 10 16 0.00 0.00
4:52 pm 16:52 Sunny 82 27.8 57 13.9 42 42 SSE 13 20 29.87 1012 10 16 0.00 0.00
5:52 pm 17:52 Sunny 80 26.7 57 13.9 45 45 SSE 10 17 29.85 1011 10 16 0.00 0.00
6:52 pm 18:52 Sunny 80 26.7 56 13.3 44 44 S 10 17 29.85 1011 10 16 0.00 0.00
7:52 pm 19:52 Sunny 76 24.4 59 15 56 56 S 7 11 29.85 1011 10 16 0.00 0.00
8:52 pm 20:52 Clear 73 22.8 58 14.4 59 59 S 6 9 29.85 1011 10 16 0.00 0.00
9:52 pm 21:52 Clear 70 21.1 58 14.4 66 66 SSE 6 9 29.86 1011 10 16 0.00 0.00
10:52 pm 22:52 Clear 68 20 58 14.4 70 70 SSE 7 11 29.87 1012 10 16 0.00 0.00
11:52 pm 23:52 Clear 68 20 58 14.4 70 70 SSE 9 15 29.86 1011 10 16 0.00 0.00

Powered by AerisWeather